Location: ???????-?????
(55.8067°N, 38.9618°E)
Time: 04:50:09
(UTC+00:00)

Daily predictions for brighter satellites

Satellite Brightness Start Highest point End
(mag) Time Altitude Azimuth Time Altitude Azimuth Time Altitude Azimuth
NOSS 3-3 (A) 4.5 00:04:18 34° S 00:06:20 48° SE 00:12:40 10° NE
Cosmos 1812 Rocket 3.8 00:06:28 52° WNW 00:06:28 52° WNW 00:10:39 10° N
NOSS 3-3 (C) 4.5 00:04:25 34° S 00:06:27 47° SE 00:12:47 10° NE
Cosmos 1745 Rocket 4.0 00:06:16 46° SW 00:08:01 65° WNW 00:14:09 10° N
Cosmos 1408 Rocket 4.3 00:04:07 10° N 00:08:31 54° ENE 00:11:55 16° SSE
Meteor 2-20 Rocket 4.3 00:02:28 10° NNW 00:08:36 89° WSW 00:12:29 24° S
ATLAS 5 CENTAUR R/B 1.6 00:08:33 53° NW 00:08:58 56° NNW 00:13:25 10° NE
GEOS 3 Rocket 3.9 00:03:47 10° ESE 00:09:01 72° NE 00:14:22 10° NW
Timation 1 Rocket 4.2 00:04:48 10° NW 00:10:49 71° WSW 00:16:47 10° SSE
Helios 1A 4.2 00:07:25 10° SE 00:11:18 41° ENE 00:15:14 10° N
Cosmos 1346 Rocket 2.9 00:12:31 60° WNW 00:12:31 60° WNW 00:16:19 10° N
Cosmos 921 Rocket 3.0 00:14:45 62° SSW 00:15:29 86° WNW 00:20:02 10° NNE
Lacrosse 4 Rocket 3.6 00:13:47 14° NW 00:15:57 19° NNW 00:19:01 10° NNE
Cosmos 2263 4.3 00:14:36 41° SSW 00:16:39 76° ESE 00:22:26 10° NE
Thor Agena Rocket 3.4 00:12:13 10° NNE 00:17:18 76° WNW 00:18:42 48° SW
Cosmos 2297 3.9 00:15:56 42° WSW 00:17:44 61° NW 00:23:25 10° NNE
Meteor 1-25 Rocket 4.2 00:13:16 10° NNW 00:18:50 59° W 00:20:34 41° SSW
Cosmos 1709 Rocket 3.9 00:16:52 38° SSW 00:19:22 78° WNW 00:25:36 10° N
Cosmos 2181 Rocket 4.0 00:13:26 10° NNW 00:19:53 81° W 00:24:43 19° S
Okean 3 Rocket 3.4 00:18:09 10° NNW 00:22:33 73° W 00:23:31 52° SSW
ADEOS II 2.1 00:19:17 10° NNE 00:24:31 66° WNW 00:26:11 42° SW
Cosmos 44 3.2 00:24:40 50° SSW 00:25:45 72° SE 00:30:31 10° NE
YAOGAN 11 3.9 00:24:29 43° S 00:25:50 77° WSW 00:30:09 10° NNW
ARGOS Delta rocket 3.6 00:24:45 26° SSE 00:27:13 87° ENE 00:31:43 10° NNW
Cosmos 972 Rocket 4.4 00:24:03 10° NNW 00:30:35 85° ENE 00:36:20 10° SSE
Meteor 1-5 Rocket 4.2 00:27:27 10° NNW 00:33:11 89° WSW 00:39:04 10° SSE
Cosmos 1538 Rocket 4.0 00:33:37 39° SW 00:35:41 77° WNW 00:41:07 10° NNE
Cosmos 1371 Rocket 3.8 00:30:43 10° NNW 00:35:56 81° WSW 00:41:06 10° SSE
AQUA 4.2 00:31:53 10° N 00:36:28 48° WNW 00:37:43 38° WSW
SL-16 R/B 3.3 00:36:20 30° WSW 00:37:09 31° W 00:42:40 10° NNW
USA 281 4.3 00:33:02 10° ESE 00:39:13 46° NE 00:45:26 10° NNW
ATLAS CENTAUR R/B 1.5 00:39:00 44° WSW 00:40:18 71° NW 00:44:32 10° NE
NPP 4.3 00:35:17 10° N 00:40:18 40° WNW 00:42:07 30° WSW
IRS-1D 3.7 00:36:24 10° NNE 00:41:22 69° ESE 00:44:43 21° S
Cosmos 1441 Rocket 4.3 00:41:53 29° WNW 00:41:53 29° WNW 00:45:10 10° N
ERS-2 1.9 00:39:08 10° N 00:42:34 62° WNW 00:42:54 57° WSW
Cosmos 2056 Rocket 3.4 00:38:17 10° NNW 00:43:28 75° WSW 00:48:42 10° SSE
Cosmos 1842 Rocket 3.6 00:41:20 27° S 00:43:38 75° E 00:48:01 10° NNE
Nadezhda 3 Rocket 4.2 00:38:58 10° N 00:45:17 76° ENE 00:51:38 10° SSE
Cosmos 1782 2.6 00:45:25 45° SSW 00:46:32 74° WNW 00:50:28 10° N
MSX 4.1 00:41:21 10° N 00:46:57 53° WNW 00:49:36 30° SW
Lacrosse 5 1.8 00:46:22 33° WSW 00:48:41 90° S 00:53:49 10° ENE
SeaSat 1 2.5 00:47:18 10° NE 00:52:16 81° ESE 00:55:01 27° SSW
NOSS 2-1 (E) 3.5 00:50:14 10° NW 00:54:10 69° SW 00:59:35 10° SE
Cosmos 2369 Rocket 2.5 00:51:44 29° WSW 00:54:24 55° NW 00:59:58 10° NNE
Cosmos 1766 Rocket 4.5 00:50:46 10° NNW 00:54:40 29° W 00:54:51 29° W
Cosmos 1624 Rocket 4.0 00:49:57 10° NNW 00:55:15 64° WSW 01:00:29 10° SSE
Cosmos 1420 Rocket 3.9 00:50:58 10° NNW 00:56:07 64° WSW 01:01:14 10° SSE
Cosmos 2297 Rocket 2.4 00:50:36 10° NNW 00:56:18 73° NE 01:01:59 10° SE
Cosmos 1500 Rocket 3.4 00:52:39 10° NNW 00:57:00 84° W 01:01:19 10° S
Cosmos 1656 Rocket 4.0 00:57:30 27° WSW 01:00:12 51° NW 01:05:38 10° NNE
Orbus 7S? 4.4 00:52:23 10° WNW 01:01:27 56° SW 01:05:27 10° SE
FENGYUN 3A 3.6 00:56:04 10° NNE 01:01:32 76° WNW 01:05:15 21° SSW
USA 102 4.3 00:59:45 35° S 01:01:32 68° WSW 01:09:14 10° NW
Cosmos 1805 Rocket 3.6 00:59:50 10° NNW 01:04:19 86° ENE 01:08:47 10° SSE
Cosmos 2074 Rocket 4.0 00:59:30 12° S 01:05:28 90° WNW 01:11:48 10° NNE
CBERS-1 4.4 01:01:08 10° NNE 01:06:15 63° ESE 01:11:19 10° S
Cosmos 1933 3.7 01:05:23 32° SW 01:06:49 47° WNW 01:10:45 10° N
CZ-2C R/B 2.7 01:01:29 10° S 01:06:59 59° W 01:12:26 10° NNW
Resurs 1-4 Rocket 3.4 01:02:43 10° N 01:07:01 25° NW 01:09:19 19° W
Cosmos 2221 2.9 01:05:34 30° SW 01:07:19 47° WNW 01:11:32 10° N
SL-27 R/B 2.6 01:06:30 10° NW 01:09:22 38° WSW 01:09:22 38° WSW
CZ-2D R/B 3.4 01:07:11 10° N 01:11:24 25° NW 01:13:47 18° W
IDEFIX/ARIANE 42P 3.7 01:07:19 10° N 01:11:43 29° WNW 01:14:03 20° W
Genesis I 4.0 01:10:30 20° SSW 01:12:52 44° SE 01:16:36 10° ENE
Cosmos 2227 Rocket 2.7 01:07:27 10° NNW 01:13:06 65° NE 01:18:43 10° SE
Cosmos 1943 Rocket 3.7 01:10:34 13° WNW 01:14:27 25° NNW 01:19:05 10° NNE
Cosmos 2219 4.0 01:08:53 10° NNW 01:14:27 54° NE 01:20:01 10° SE
PAYLOAD A 4.3 01:09:30 10° NNE 01:14:55 76° ESE 01:20:08 10° S
Cosmos 1515 4.4 01:11:57 10° S 01:15:33 53° E 01:19:11 10° NNE
USA 32 4.3 01:10:22 10° N 01:15:38 72° E 01:20:52 10° SSE
Cosmos 1536 3.5 01:15:32 10° N 01:19:27 56° ENE 01:23:22 10° SSE
COSMOS 2455 4.4 01:14:26 10° S 01:19:39 31° ESE 01:24:53 10° NE
Cosmos 1484 Rocket 4.2 01:16:22 10° NNE 01:19:54 37° E 01:23:27 10° SSE
Cosmos 1452 Rocket 3.6 01:15:22 10° NNW 01:20:42 82° ENE 01:26:00 10° SSE
Meteor 1-11 Rocket 3.9 01:17:14 10° NNW 01:22:52 77° ENE 01:28:23 10° SSE
Cosmos 1812 3.7 01:22:10 24° W 01:23:19 28° WNW 01:26:37 10° N
Cosmos 2278 Rocket 4.3 01:19:40 10° WNW 01:23:37 19° NNW 01:27:35 10° NNE
Meteor 1-26 Rocket 4.3 01:20:58 16° SSW 01:25:34 63° WNW 01:31:23 10° N
ATLAS 2AS CENTAUR R/B 3.0 01:19:54 10° NW 01:27:08 74° NNE 01:33:54 10° ESE
Envisat 3.5 01:23:10 10° NNE 01:28:14 60° ESE 01:33:15 10° S
ALOS 2.5 01:23:52 10° N 01:28:24 54° WNW 01:31:54 16° SW
Cosmos 1295 Rocket 4.5 01:25:14 10° SSW 01:31:34 81° WNW 01:37:52 10° N
Cosmos 1151 Rocket 4.0 01:27:29 10° S 01:31:40 49° E 01:35:50 10° NNE
USA 276 3.8 01:31:10 16° SSW 01:32:11 19° SSE 01:34:22 10° ESE
CZ-2C R/B 2.3 01:28:17 10° NNE 01:33:04 77° WNW 01:38:00 10° SSW
Cosmos 1242 Rocket 4.5 01:33:57 10° NW 01:35:01 13° WNW 01:35:01 13° WNW
NOSS 3-4 (A) 4.4 01:38:49 10° WNW 01:44:56 35° WSW 01:51:45 10° S
NOSS 3-4 (C) 4.3 01:38:55 10° WNW 01:45:02 35° WSW 01:51:53 10° S
NOSS 2-1 (C) 4.4 01:41:59 10° WNW 01:45:42 32° SW 01:50:36 10° SSE
Sich 1 3.3 01:41:52 10° NNW 01:46:08 47° W 01:50:21 10° SSW
Helios 1A 3.8 01:43:12 10° SSW 01:46:50 29° W 01:50:30 10° NNW
GEOS 3 Rocket 4.1 01:42:31 10° SSE 01:47:22 38° SW 01:52:19 10° WNW
DMSP B5D2-2 4.2 01:42:23 10° SSE 01:47:37 80° ENE 01:52:51 10° NNW
Cosmos 2263 Rocket 3.4 01:45:32 10° NNW 01:50:57 46° NE 01:56:21 10° ESE
Cosmos 1666 Rocket 3.5 01:47:50 10° NNW 01:52:11 82° W 01:56:31 10° S
Cosmos 1339 Rocket 4.4 01:47:00 10° NNW 01:53:04 70° W 01:59:09 10° S
ATLAS 5 CENTAUR R/B 3.0 01:50:20 10° WNW 01:54:06 32° N 01:58:34 10° ENE
Cosmos 1743 2.8 01:51:11 10° NNW 01:54:50 50° W 01:58:28 10° S
YAOGAN 6 2.5 01:51:45 10° N 01:55:16 72° WNW 01:58:49 10° SSW
Lacrosse 4 Rocket 3.9 01:53:17 10° NNW 01:55:57 16° N 01:58:35 10° NE
NOSS 3-3 (A) 4.3 01:51:44 13° WSW 01:57:06 65° NNW 02:04:09 10° NE
NOSS 3-3 (C) 4.2 01:51:50 13° WSW 01:57:12 66° NNW 02:04:16 10° NE
DELTA 2 DEB (DPAF) 4.3 01:53:20 10° SSE 01:57:43 77° ENE 02:02:07 10° NNW
CZ-2D R/B 4.2 01:54:00 10° NNE 01:58:15 58° ESE 02:02:21 10° S
SKYMED 2 4.3 01:56:08 10° SSE 02:00:25 59° ENE 02:04:43 10° N
IRS-1C 4.2 01:55:59 10° NNE 02:01:22 85° ESE 02:06:43 10° SSW
Meteor 2-6 Rocket 4.4 01:55:37 10° SSW 02:01:33 65° WNW 02:07:28 10° N
ADEOS II 3.8 01:59:59 10° N 02:03:20 17° NW 02:06:40 10° W
Cosmos 1633 Rocket 3.0 01:59:58 10° NNW 02:04:25 76° W 02:08:49 10° S
Cosmos 2184 Rocket 4.4 01:59:47 10° SW 02:05:37 42° WNW 02:11:28 10° N
Cosmos 44 4.1 02:03:03 10° W 02:07:19 38° NNW 02:11:53 10° NE
METEOR-M 4.4 02:02:48 10° N 02:07:59 52° WNW 02:13:08 10° SW
RESURS DK-1 3.5 02:04:27 10° NNW 02:08:29 47° NE 02:12:29 10° ESE
Cosmos 1680 Rocket 4.0 02:05:04 10° SW 02:10:07 45° NW 02:15:14 10° NNE
Meteor 1-10 Rocket 4.4 02:04:32 10° SSW 02:10:29 78° WNW 02:16:28 10° NNE
Helios 1B rocket 2.8 02:07:42 10° NNE 02:11:43 66° ESE 02:15:41 10° S
ARIANE 5 R/B 2.6 02:12:04 10° NNE 02:17:15 82° WNW 02:22:29 10° SSW
CZ-2C R/B 3.1 02:13:40 10° N 02:18:16 50° WNW 02:22:57 10° SW
SAR-Lupe-2 3.6 02:15:03 10° N 02:18:36 61° WNW 02:22:08 10° SSW
ATLAS CENTAUR R/B 2.8 02:15:27 10° WNW 02:19:17 29° NNW 02:22:55 10° NE
Cosmos 1697 Rocket 3.9 02:16:48 10° S 02:22:06 45° ESE 02:27:26 10° NE
USA 281 3.3 02:17:09 10° SSE 02:23:38 60° WSW 02:30:09 10° NNW
SL-08 R/B 3.5 02:22:15 10° S 02:26:58 52° W 02:31:38 10° NNW
